Weather History for CYKZ - November, 2012

Change the Weather History Date:

Saturday, November 10, 2012

  Actual Average Record
Temperature  
Mean Temperature 42 °F -  
Max Temperature 45 °F 44 °F 60 °F (1999)
Min Temperature 39 °F 30 °F 21 °F (2003)
Degree Days  
Heating Degree Days 23    
Moisture  
Dew Point 40 °F    
Average Humidity 91    
Maximum Humidity 100    
Minimum Humidity 80    
Precipitation  
Precipitation 0.16 in - - ()
Sea Level Pressure  
Sea Level Pressure 30.24 in    
Wind  
Wind Speed 4 mph ()    
Max Wind Speed 15 mph    
Max Gust Speed 22 mph    
Visibility 6.8 miles    
Events Rain , Thunderstorm    
Averages and records for this station are not official NWS values.
T = Trace of Precipitation, MM = Missing Value Source: Averaged Metar Reports

Daily Weather History Graph

Daily Weather History Graph

Search for Another Location

Airport or City:

Trip Planner

Search our weather history database for the weather conditions in past years. The results will help you decide how hot, cold, wet, or windy it might be!

Date:

Astronomy

Nov. 10, 2012 Rise Set
Actual Time 7:06 AM EST 4:56 PM EST
Civil Twilight 6:35 AM EST 5:26 PM EST
Nautical Twilight 6:00 AM EST 6:01 PM EST
Astronomical Twilight 5:27 AM EST 6:35 PM EST
Moon 3:02 AM EST (11/10) 2:47 PM EST (11/10)
Length of Visible Light 10h 51m
Length of Day
9h 50m
Waning Crescent, 14% of the Moon is Illuminated
Nov 10
Waning Crescent
Nov 13
New
Nov 20
First Quarter
Nov 28
Full
Dec 6
Last Quarter

Hourly Weather History & Observations

Time (EST) Temp. Windchill Dew Point Humidity Pressure Visibility Wind Dir Wind Speed Gust Speed Precip Events Conditions
12:00 AM 42.8 °F - 41.0 °F 93% 30.19 in 3.0 mi NW 2.3 mph - N/A   Overcast
1:00 AM 42 °F - 42 °F 98% 30.19 in 2 mi Calm Calm - -   Mist
1:00 AM 42.8 °F - 41.0 °F 93% 30.19 in 2.5 mi Calm Calm - N/A   Overcast
2:00 AM 42.8 °F - 41.0 °F 93% 30.21 in 2.2 mi Calm Calm - N/A   Overcast
3:00 AM 41.0 °F - 39.2 °F 93% 30.22 in 1.2 mi Calm Calm - N/A   Mostly Cloudy
4:00 AM 41.0 °F - 41.0 °F 100% 30.23 in 1.5 mi North 2.3 mph - N/A   Overcast
5:00 AM 41.0 °F - 41.0 °F 100% 30.24 in 1.5 mi Calm Calm - N/A   Overcast
6:00 AM 39.2 °F - 39.2 °F 100% 30.25 in 1.5 mi Calm Calm - N/A   Mostly Cloudy
7:00 AM 39 °F - 39 °F 100% 30.26 in 1 mi ENE 2.3 mph - -   Mist
7:00 AM 39.2 °F - 39.2 °F 100% 30.26 in 1.2 mi Calm Calm - N/A   Mostly Cloudy
7:54 AM - - - N/A% - 1.2 mi East 2.3 mph - N/A   Overcast
8:00 AM 41.0 °F - 41.0 °F 100% 30.28 in 1.5 mi East 2.3 mph - N/A   Overcast
8:15 AM - - - N/A% - 1.2 mi East 2.3 mph - N/A   Overcast
9:00 AM 42.8 °F 41.1 °F 42.8 °F 100% 30.30 in 1.2 mi East 3.5 mph - N/A   Mostly Cloudy
10:00 AM 44.6 °F 41.4 °F 42.8 °F 93% 30.30 in 1.8 mi ESE 5.8 mph - N/A   Overcast
10:18 AM - - - N/A% - 2.5 mi SE 8.1 mph - N/A   Overcast
11:00 AM 44.6 °F 39.7 °F 42.8 °F 93% 30.30 in 4.0 mi East 9.2 mph - N/A   Overcast
12:00 PM 42.8 °F 36.6 °F 41.0 °F 93% 30.25 in 7.0 mi East 11.5 mph - N/A   Overcast
1:00 PM 44 °F - 40 °F 83% 30.26 in 12 mi ESE 9.2 mph - -   Overcast
1:00 PM 42.8 °F 37.5 °F 41.0 °F 93% 30.26 in 12.0 mi ESE 9.2 mph - N/A   Overcast
2:00 PM 44.6 °F 37.8 °F 41.0 °F 87% 30.23 in 15.0 mi ESE 15.0 mph 21.9 mph N/A   Overcast
2:48 PM - - - N/A% - 15.0 mi East 15.0 mph - N/A   Overcast
3:00 PM 42.8 °F 36.6 °F 39.2 °F 87% 30.25 in 15.0 mi East 11.5 mph 18.4 mph N/A   Overcast
4:00 PM 42.8 °F 37.0 °F 37.4 °F 81% 30.26 in 15.0 mi East 10.4 mph 19.6 mph N/A   Overcast
5:00 PM 42.8 °F 37.5 °F 37.4 °F 81% 30.26 in 12.0 mi East 9.2 mph - N/A   Overcast
6:00 PM 42.8 °F 36.6 °F 37.4 °F 81% 30.26 in 12.0 mi ESE 11.5 mph 17.3 mph N/A   Overcast
7:00 PM 43 °F - 39 °F 80% 30.26 in 12 mi ESE 11.5 mph - -   Overcast
7:00 PM 42.8 °F 36.6 °F 39.2 °F 87% 30.26 in 12.0 mi ESE 11.5 mph 17.3 mph N/A   Overcast
7:06 PM - - - N/A% - 12.0 mi ESE 10.4 mph 17.3 mph N/A   Light Drizzle
8:00 PM 42.8 °F 37.5 °F 39.2 °F 87% 30.24 in 10.0 mi ESE 9.2 mph - N/A   Overcast
9:00 PM 44.6 °F 38.4 °F 39.2 °F 81% 30.22 in 10.0 mi ESE 12.7 mph - N/A   Overcast
10:00 PM 44.6 °F 38.8 °F 41.0 °F 87% 30.20 in 10.0 mi ESE 11.5 mph - N/A   Overcast
11:00 PM 44.6 °F 40.7 °F 42.8 °F 93% 30.18 in 10.0 mi ESE 6.9 mph - N/A   Overcast
11:20 PM - - - N/A% - 10.0 mi ESE 5.8 mph - N/A Thunderstorm Thunderstorm
11:31 PM - - - N/A% - 5.0 mi ENE 4.6 mph - N/A Rain , Thunderstorm Heavy Thunderstorms and Rain